Weather History for Houghton, MI

Change the Weather History Date:

Friday, September 20, 2013

  Actual Average Record
Temperature  
Mean Temperature 58 °F -  
Max Temperature 66 °F 60 °F 83 °F (1970)
Min Temperature 50 °F 46 °F 28 °F (1956)
Degree Days  
Heating Degree Days 7    
Growing Degree Days 8 (Base 50)    
Moisture  
Dew Point 57 °F    
Average Humidity 88    
Maximum Humidity 100    
Minimum Humidity 67    
Precipitation  
Precipitation 0.00 in - - ()
Sea Level Pressure  
Sea Level Pressure 29.66 in    
Wind  
Wind Speed 12 mph (West)    
Max Wind Speed 24 mph    
Max Gust Speed 32 mph    
Visibility 7 miles    
Events Fog , Rain    
Averages and records for this station are not official NWS values.
T = Trace of Precipitation, MM = Missing Value Source: NWS Daily Summary

Daily Weather History Graph

Daily Weather History Graph

Search for Another Location

Airport:

Trip Planner

Search our weather history database for the weather conditions in past years. The results will help you decide how hot, cold, wet, or windy it might be!

Date:

Astronomy

Sep. 20, 2013 Rise Set
Actual Time 7:38 AM EDT 7:55 PM EDT
Civil Twilight 7:07 AM EDT 8:25 PM EDT
Nautical Twilight 6:31 AM EDT 9:01 PM EDT
Astronomical Twilight 5:54 AM EDT 9:38 PM EDT
Moon 8:19 PM EDT (9/20) 9:00 AM EDT (9/20)
Length of Visible Light 13h 17m
Length of Day
12h 16m
Full, 98% of the Moon is Illuminated
Sep 20
Full
Sep 26
Last Quarter
Oct 4
New
Oct 11
First Quarter
Oct 18
Full

Hourly Weather History & Observations

Time (EDT) Temp. Dew Point Humidity Pressure Visibility Wind Dir Wind Speed Gust Speed Precip Events Conditions
12:02 AM 66.2 °F 64.4 °F 94% 29.64 in 10.0 mi WSW 4.6 mph - N/A   Overcast
12:11 AM 66.2 °F 64.4 °F 94% 29.64 in 10.0 mi SW 5.8 mph - N/A   Overcast
12:35 AM 66.2 °F 64.4 °F 94% 29.64 in 10.0 mi WSW 9.2 mph - N/A   Overcast
12:53 AM 66.9 °F 64.0 °F 90% 29.62 in 10.0 mi West 9.2 mph - N/A   Mostly Cloudy
1:53 AM 64.9 °F 63.0 °F 93% 29.64 in 2.5 mi West 12.7 mph - N/A   Overcast
2:00 AM 64.4 °F 62.6 °F 94% 29.65 in 0.8 mi West 13.8 mph - N/A   Overcast
2:14 AM 64.4 °F 62.6 °F 94% 29.65 in 1.5 mi West 13.8 mph - N/A   Overcast
2:23 AM 64.4 °F 62.6 °F 94% 29.64 in 0.5 mi West 15.0 mph - N/A Fog Fog
2:31 AM 62.6 °F 62.6 °F 100% 29.64 in 0.2 mi West 13.8 mph 20.7 mph N/A Fog Fog
2:53 AM 63.0 °F 62.1 °F 97% 29.61 in 0.2 mi West 10.4 mph - N/A Fog Fog
3:24 AM 62.6 °F 62.6 °F 100% 29.62 in 0.5 mi West 10.4 mph - N/A Fog Fog
3:49 AM 62.6 °F 62.6 °F 100% 29.62 in 1.8 mi WSW 6.9 mph - N/A   Overcast
3:53 AM 63.0 °F 62.1 °F 97% 29.61 in 2.5 mi West 6.9 mph - N/A   Overcast
4:01 AM 62.6 °F 62.6 °F 100% 29.62 in 3.0 mi West 9.2 mph - N/A   Overcast
4:16 AM 62.6 °F 62.6 °F 100% 29.62 in 1.8 mi West 8.1 mph - N/A   Overcast
4:34 AM 62.6 °F 62.6 °F 100% 29.63 in 0.5 mi North - - N/A Fog Fog
4:41 AM 62.6 °F 62.6 °F 100% 29.63 in - North - - N/A   Unknown
4:53 AM - - N/A% 29.62 in - North - - N/A   Unknown
5:14 AM 62.6 °F 62.6 °F 100% 29.61 in 1.0 mi West 16.1 mph - N/A Rain Light Rain
5:31 AM 62.6 °F 62.6 °F 100% 29.61 in 2.0 mi West 15.0 mph - N/A Rain Light Rain
5:45 AM 62.6 °F 62.6 °F 100% 29.61 in 5.0 mi West 15.0 mph - N/A   Overcast
5:53 AM 62.1 °F 61.0 °F 96% 29.60 in 8.0 mi West 13.8 mph - N/A   Overcast
6:53 AM 62.1 °F 61.0 °F 96% 29.60 in 5.0 mi West 13.8 mph 25.3 mph N/A   Overcast
7:53 AM 62.1 °F 61.0 °F 96% 29.61 in 8.0 mi West 17.3 mph - N/A   Overcast
8:53 AM 62.1 °F 60.1 °F 93% 29.62 in 8.0 mi West 15.0 mph - N/A   Overcast
9:19 AM 62.6 °F 60.8 °F 94% 29.64 in 10.0 mi West 16.1 mph 24.2 mph N/A   Overcast
9:53 AM 62.1 °F 59.0 °F 90% 29.64 in 10.0 mi West 19.6 mph 27.6 mph N/A   Overcast
10:53 AM 61.0 °F 59.0 °F 93% 29.66 in 10.0 mi West 17.3 mph - N/A   Overcast
11:22 AM 62.6 °F 59.0 °F 88% 29.65 in 10.0 mi West 11.5 mph - N/A   Scattered Clouds
11:53 AM 64.9 °F 59.0 °F 81% 29.65 in 10.0 mi West 17.3 mph - N/A   Mostly Cloudy
12:01 PM 60.8 °F 57.2 °F 88% 29.66 in 10.0 mi West 24.2 mph 32.2 mph N/A   Mostly Cloudy
12:08 PM 60.8 °F 57.2 °F 88% 29.66 in 10.0 mi West 15.0 mph 32.2 mph N/A   Mostly Cloudy
12:53 PM 60.1 °F 55.0 °F 83% 29.66 in 10.0 mi West 19.6 mph 28.8 mph N/A   Overcast
1:12 PM 62.6 °F 55.4 °F 77% 29.66 in 10.0 mi West 18.4 mph 23.0 mph N/A   Overcast
1:19 PM 62.6 °F 55.4 °F 77% 29.66 in 10.0 mi West 18.4 mph - N/A   Overcast
1:53 PM 60.1 °F 54.0 °F 80% 29.67 in 10.0 mi West 18.4 mph 23.0 mph N/A   Overcast
2:53 PM 59.0 °F 54.0 °F 83% 29.68 in 7.0 mi West 19.6 mph 28.8 mph 0.00 in   Overcast
3:20 PM 59.0 °F 51.8 °F 77% 29.67 in 10.0 mi West 19.6 mph - N/A   Overcast
3:53 PM 59.0 °F 52.0 °F 78% 29.68 in 10.0 mi WNW 17.3 mph 24.2 mph N/A   Overcast
4:53 PM 55.9 °F 52.0 °F 87% 29.69 in 10.0 mi WNW 17.3 mph - N/A   Overcast
5:53 PM 57.9 °F 48.9 °F 72% 29.70 in 10.0 mi WNW 21.9 mph 27.6 mph N/A   Overcast
6:11 PM 57.2 °F 48.2 °F 72% 29.70 in 10.0 mi WNW 17.3 mph 27.6 mph N/A   Scattered Clouds
6:53 PM 55.9 °F 50.0 °F 80% 29.72 in 10.0 mi WNW 18.4 mph - N/A   Unknown
7:08 PM 55.4 °F 50.0 °F 82% 29.71 in 10.0 mi WNW 16.1 mph - N/A   Overcast
7:53 PM 55.0 °F 48.0 °F 77% 29.73 in 10.0 mi WNW 13.8 mph 24.2 mph N/A   Overcast
8:24 PM 55.4 °F 48.2 °F 77% 29.73 in 10.0 mi WNW 17.3 mph 24.2 mph N/A   Overcast
8:45 PM 53.6 °F 46.4 °F 77% 29.74 in 10.0 mi NW 12.7 mph - N/A   Overcast
8:53 PM 54.0 °F 46.9 °F 77% 29.75 in 10.0 mi NW 13.8 mph - N/A   Overcast
9:53 PM 53.1 °F 44.1 °F 71% 29.76 in 10.0 mi NNW 12.7 mph - 0.00 in   Overcast
10:01 PM 53.6 °F 42.8 °F 67% 29.76 in 10.0 mi NNW 10.4 mph - N/A   Overcast
10:53 PM 50.0 °F 44.1 °F 80% 29.77 in 10.0 mi NW 5.8 mph - N/A   Mostly Cloudy
11:53 PM 51.1 °F 44.1 °F 77% 29.76 in 10.0 mi WNW 6.9 mph - N/A   Mostly Cloudy